EW5466 Weather Reports


Display with metric or nautical units.
time (UTC)temp
F
wind
direction
speed
MPH
gust
MPH
rain 1hr
in
rain 24hr
in
rain mn
in
humidity
%
barometer
mb
20190117070445 9 129 2.0 3.0 0.00 0.00 0.00 86 1025.2
20190117065939 9 129 2.0 3.0 0.00 0.00 0.00 86 1025.3
20190117065439 9 129 2.0 3.0 0.00 0.00 0.00 86 1025.3
20190117064946 10 129 2.0 3.0 0.00 0.00 0.00 87 1025.3
20190117064439 10 129 2.0 3.0 0.00 0.00 0.00 87 1025.6
20190117063934 10 129 2.0 3.0 0.00 0.00 0.00 87 1025.6
20190117063434 10 129 2.0 3.0 0.00 0.00 0.00 87 1025.6
20190117062938 10 129 2.0 3.0 0.00 0.00 0.00 87 1025.6
20190117062438 10 129 2.0 3.0 0.00 0.00 0.00 87 1025.6
20190117061939 10 129 2.0 5.0 0.00 0.00 0.00 87 1025.6
20190117061438 10 129 3.0 5.0 0.00 0.00 0.00 87 1025.7
20190117060936 10 129 3.0 4.0 0.00 0.00 0.00 87 1025.7
20190117060428 10 100 2.0 3.0 0.00 0.00 0.00 87 1025.7
20190117055927 10 100 2.0 3.0 0.00 0.00 0.00 87 1025.6
20190117055431 10 100 2.0 3.0 0.00 0.00 0.00 87 1025.6
20190117054931 9 100 2.0 4.0 0.00 0.00 0.00 87 1025.6
20190117054437 9 100 2.0 4.0 0.00 0.00 0.00 87 1025.7
20190117053929 9 100 3.0 4.0 0.00 0.00 0.00 87 1025.7
20190117053423 9 100 3.0 4.0 0.00 0.00 0.00 87 1025.7
20190117052923 9 98 3.0 4.0 0.00 0.00 0.00 88 1025.9
20190117052424 9 98 3.0 4.0 0.00 0.00 0.00 87 1025.9
20190117051937 9 98 4.0 5.0 0.00 0.00 0.00 88 1025.9
20190117051428 9 98 4.0 5.0 0.00 0.00 0.00 88 1025.9
20190117050925 9 98 3.0 4.0 0.00 0.00 0.00 88 1025.9
20190117050422 8 98 4.0 4.0 0.00 0.00 0.00 88 1025.9
20190117045920 8 98 4.0 4.0 0.00 0.00 0.00 88 1025.8
20190117045420 8 98 4.0 5.0 0.00 0.00 0.00 88 1025.8
20190117044925 8 98 5.0 7.0 0.00 0.00 0.00 88 1025.8
20190117044420 8 98 6.0 7.0 0.00 0.00 0.00 88 1025.9
20190117043919 8 98 7.0 7.0 0.00 0.00 0.00 87 1025.9
20190117043421 8 92 6.0 7.0 0.00 0.00 0.00 88 1025.9
20190117042915 8 83 5.0 7.0 0.00 0.00 0.00 87 1025.9
20190117042416 8 83 6.0 7.0 0.00 0.00 0.00 87 1025.9
20190117041916 8 83 6.0 7.0 0.00 0.00 0.00 87 1025.9
20190117041419 8 83 5.0 7.0 0.00 0.00 0.00 87 1025.9
20190117040917 9 90 4.0 5.0 0.00 0.00 0.00 87 1025.9
20190117040421 9 90 5.0 6.0 0.00 0.00 0.00 87 1025.9
20190117035916 9 90 5.0 7.0 0.00 0.00 0.00 87 1025.9
20190117035413 9 90 5.0 7.0 0.00 0.00 0.00 87 1025.9
20190117034913 9 90 5.0 6.0 0.00 0.00 0.00 86 1025.9
20190117034412 10 96 4.0 5.0 0.00 0.00 0.00 86 1025.9
20190117033918 10 97 4.0 5.0 0.00 0.00 0.00 86 1025.9
20190117033412 10 100 3.0 5.0 0.00 0.00 0.00 86 1025.9
20190117032914 10 142 2.0 4.0 0.00 0.00 0.00 86 1025.9
20190117032407 10 142 2.0 3.0 0.00 0.00 0.00 86 1025.9
20190117031908 11 142 2.0 3.0 0.00 0.00 0.00 85 1025.9
20190117031410 11 142 2.0 3.0 0.00 0.00 0.00 85 1025.8
20190117030905 11 142 3.0 4.0 0.00 0.00 0.00 85 1025.8
20190117030405 11 142 3.0 5.0 0.00 0.00 0.00 85 1025.8
20190117025906 11 142 4.0 6.0 0.00 0.00 0.00 85 1025.7
20190117025405 11 142 5.0 6.0 0.00 0.00 0.00 85 1025.7
20190117024905 11 142 4.0 5.0 0.00 0.00 0.00 85 1025.7
20190117024405 12 142 3.0 5.0 0.00 0.00 0.00 85 1025.7
20190117023905 12 142 3.0 4.0 0.00 0.00 0.00 84 1025.7
20190117023405 12 115 3.0 6.0 0.00 0.00 0.00 83 1025.7
20190117022901 12 107 4.0 6.0 0.00 0.00 0.00 83 1025.4
20190117022401 13 107 4.0 6.0 0.00 0.00 0.00 83 1025.4
20190117021901 13 107 5.0 7.0 0.00 0.00 0.00 83 1025.4
20190117021401 13 98 6.0 7.0 0.00 0.00 0.00 84 1025.3
20190117020901 13 89 4.0 7.0 0.00 0.00 0.00 84 1025.3
20190117020401 14 80 2.0 5.0 0.00 0.00 0.00 85 1025.3
20190117015902 14 300 0.0 3.0 0.00 0.00 0.00 84 1025.3
20190117015356 13 300 1.0 2.0 0.00 0.00 0.00 84 1025.3
20190117014855 13 300 2.0 3.0 0.00 0.00 0.00 84 1025.3
20190117014355 13 300 3.0 3.0 0.00 0.00 0.00 84 1025.4
20190117013855 13 300 1.0 3.0 0.00 0.00 0.00 84 1025.4
20190117013355 13 300 1.0 2.0 0.00 0.00 0.00 84 1025.4
20190117012855 14 300 2.0 5.0 0.00 0.00 0.00 83 1025.4
20190117012355 14 300 3.0 5.0 0.00 0.00 0.00 83 1025.4
20190117011851 14 300 4.0 7.0 0.00 0.00 0.00 83 1025.4
20190117011351 14 300 5.0 7.0 0.00 0.00 0.00 83 1025.4
20190117010851 14 307 5.0 7.0 0.00 0.00 0.00 84 1025.4
20190117010351 14 311 5.0 7.0 0.00 0.00 0.00 84 1025.4
20190117005852 14 311 5.0 7.0 0.00 0.00 0.00 84 1025.3
20190117005351 14 318 4.0 6.0 0.00 0.00 0.00 84 1025.3
20190117004851 14 305 3.0 6.0 0.00 0.00 0.00 84 1025.3
20190117004352 14 340 3.0 4.0 0.00 0.00 0.00 84 1025.2
20190117003851 14 340 3.0 4.0 0.00 0.00 0.00 84 1025.2
20190117003351 14 340 3.0 4.0 0.00 0.00 0.00 84 1025.2
20190117002851 14 340 3.0 4.0 0.00 0.00 0.00 84 1024.9
20190117002351 14 340 3.0 4.0 0.00 0.00 0.00 83 1024.9
20190117001851 14 340 2.0 3.0 0.00 0.00 0.00 83 1024.9
20190117001351 14 340 2.0 3.0 0.00 0.00 0.00 83 1024.8
20190117000849 14 340 2.0 3.0 0.00 0.00 0.00 83 1024.8
20190117000349 14 340 2.0 3.0 0.00 0.00 0.00 83 1024.8
20190116235848 14 340 2.0 3.0 0.00 0.00 0.00 83 1024.7
20190116235349 14 340 3.0 5.0 0.00 0.00 0.00 83 1024.7
20190116234849 13 340 3.0 5.0 0.00 0.00 0.00 83 1024.7
20190116234349 13 340 3.0 5.0 0.00 0.00 0.00 83 1024.6
20190116233849 13 340 3.0 5.0 0.00 0.00 0.00 83 1024.6
20190116233349 13 340 3.0 5.0 0.00 0.00 0.00 82 1024.6
20190116232849 13 339 4.0 6.0 0.00 0.00 0.00 82 1024.3
20190116232349 13 352 5.0 8.0 0.00 0.00 0.00 81 1024.3
20190116231848 14 327 5.0 9.0 0.00 0.00 0.00 81 1024.3
20190116231349 14 333 6.0 9.0 0.00 0.00 0.00 80 1024.3
20190116230849 14 336 6.0 10.0 0.00 0.00 0.00 80 1024.3
20190116230349 14 329 6.0 10.0 0.00 0.00 0.00 80 1024.3
20190116225849 14 331 7.0 10.0 0.00 0.00 0.00 80 1024.3
20190116225349 14 327 6.0 10.0 0.00 0.00 0.00 80 1024.3
20190116224848 14 355 6.0 10.0 0.00 0.00 0.00 80 1024.3
20190116224349 14 354 7.0 11.0 0.00 0.00 0.00 80 1023.9
20190116223849 14 338 7.0 11.0 0.00 0.00 0.00 80 1023.9
20190116223350 14 349 7.0 11.0 0.00 0.00 0.00 79 1023.9
20190116222849 14 327 8.0 11.0 0.00 0.00 0.00 80 1023.7
20190116222349 14 329 9.0 13.0 0.00 0.00 0.00 80 1023.7
20190116221849 14 336 9.0 13.0 0.00 0.00 0.00 79 1023.7
20190116221348 14 340 10.0 13.0 0.00 0.00 0.00 79 1023.7
20190116220850 14 340 10.0 14.0 0.00 0.00 0.00 77 1023.7
20190116220349 14 341 10.0 15.0 0.00 0.00 0.00 78 1023.7
20190116215847 14 317 10.0 19.0 0.00 0.00 0.00 78 1023.4
20190116215347 15 316 10.0 19.0 0.00 0.00 0.00 78 1023.4
20190116214847 15 323 9.0 15.0 0.00 0.00 0.00 80 1023.4
20190116214346 15 338 8.0 15.0 0.00 0.00 0.00 81 1023.2
20190116213846 15 333 7.0 12.0 0.00 0.00 0.00 81 1023.2
20190116213347 15 324 8.0 13.0 0.00 0.00 0.00 81 1023.2
20190116212847 15 330 10.0 18.0 0.00 0.00 0.00 81 1022.8
20190116212347 15 329 10.0 18.0 0.00 0.00 0.00 80 1022.8
20190116211846 15 326 9.0 14.0 0.00 0.00 0.00 81 1022.8
20190116211347 15 350 10.0 14.0 0.00 0.00 0.00 80 1022.6
20190116210847 16 322 12.0 19.0 0.00 0.00 0.00 80 1022.6
20190116210347 16 331 13.0 19.0 0.00 0.00 0.00 80 1022.6
20190116205847 17 340 10.0 16.0 0.00 0.00 0.00 80 1022.6
20190116205346 17 334 10.0 16.0 0.00 0.00 0.00 78 1022.6
20190116204845 17 347 11.0 18.0 0.00 0.00 0.00 79 1022.6
20190116204345 16 349 11.0 17.0 0.00 0.00 0.00 79 1022.3
20190116203845 16 354 13.0 21.0 0.00 0.00 0.00 78 1022.3
20190116203344 17 328 14.0 21.0 0.00 0.00 0.00 78 1022.3
20190116202845 17 336 14.0 21.0 0.00 0.00 0.00 77 1022.1
20190116202343 17 344 13.0 23.0 0.00 0.00 0.00 77 1022.1
20190116201842 17 329 13.0 23.0 0.00 0.00 0.00 77 1022.1
20190116201343 17 331 14.0 22.0 0.00 0.00 0.00 77 1021.8
20190116200843 17 324 14.0 22.0 0.00 0.00 0.00 76 1021.8
20190116200341 18 327 13.0 22.0 0.00 0.00 0.00 76 1021.8
20190116195841 18 333 14.0 22.0 0.00 0.00 0.00 78 1021.6
20190116195340 17 353 14.0 21.0 0.00 0.00 0.00 79 1021.6
20190116194840 17 331 14.0 22.0 0.00 0.00 0.00 79 1021.6
20190116194342 18 358 16.0 25.0 0.00 0.00 0.00 77 1021.1
20190116193841 18 354 17.0 25.0 0.00 0.00 0.00 76 1021.1
20190116193338 19 17 17.0 24.0 0.00 0.00 0.00 76 1021.1
20190116192839 19 350 16.0 25.0 0.00 0.00 0.00 77 1021.1
20190116192339 19 326 15.0 25.0 0.00 0.00 0.00 76 1021.1
20190116191838 19 342 15.0 26.0 0.00 0.00 0.00 76 1021.1
20190116191337 19 328 16.0 26.0 0.00 0.00 0.00 77 1021.0
20190116190837 18 320 16.0 25.0 0.00 0.00 0.00 77 1021.0
20190116190337 18 323 16.0 25.0 0.00 0.00 0.00 76 1021.0
20190116185837 18 329 17.0 25.0 0.00 0.00 0.00 76 1020.7
20190116185337 19 340 17.0 24.0 0.00 0.00 0.00 77 1020.7
20190116184835 19 321 17.0 23.0 0.00 0.00 0.00 77 1020.7
20190116184334 19 338 17.0 26.0 0.00 0.00 0.00 78 1020.6
20190116183835 19 318 15.0 26.0 0.00 0.00 0.00 79 1020.6
20190116183335 19 316 14.0 22.0 0.00 0.00 0.00 80 1020.6
20190116182834 19 354 14.0 22.0 0.00 0.00 0.00 81 1020.5
20190116182335 19 351 13.0 19.0 0.00 0.00 0.00 81 1020.5
20190116181834 19 352 14.0 19.0 0.00 0.00 0.00 81 1020.5
20190116181335 20 354 14.0 19.0 0.00 0.00 0.00 80 1020.1
20190116180834 20 348 14.0 23.0 0.00 0.00 0.00 82 1020.1
20190116180335 19 325 15.0 23.0 0.00 0.00 0.00 81 1020.1
20190116175835 19 293 15.0 26.0 0.00 0.00 0.00 80 1020.0
20190116175335 19 343 15.0 26.0 0.00 0.00 0.00 81 1020.0
20190116174835 19 328 17.0 30.0 0.00 0.00 0.00 81 1020.0
20190116174335 20 313 18.0 30.0 0.00 0.00 0.00 80 1019.7
20190116173835 20 336 16.0 27.0 0.00 0.00 0.00 79 1019.7
20190116173335 20 327 16.0 27.0 0.00 0.00 0.00 79 1019.7
20190116172835 21 329 16.0 24.0 0.00 0.00 0.00 79 1019.9
20190116172334 21 327 15.0 24.0 0.00 0.00 0.00 78 1019.9
20190116171835 21 358 13.0 24.0 0.00 0.00 0.00 77 1019.9
20190116171335 21 0 16.0 28.0 0.00 0.00 0.00 77 1019.8
20190116170834 20 313 20.0 28.0 0.00 0.00 0.00 75 1019.8
20190116170335 20 309 18.0 27.0 0.00 0.00 0.00 76 1019.8
20190116165834 20 327 15.0 24.0 0.00 0.00 0.00 77 1019.4
20190116165334 20 324 16.0 30.0 0.00 0.00 0.00 76 1019.4
20190116164831 20 317 17.0 30.0 0.00 0.00 0.00 77 1019.4
20190116164331 20 319 17.0 28.0 0.00 0.00 0.00 79 1019.3
20190116163831 20 313 18.0 29.0 0.00 0.00 0.00 79 1019.3
20190116163331 20 332 16.0 29.0 0.00 0.00 0.00 80 1019.3
20190116162831 20 345 14.0 22.0 0.00 0.00 0.00 83 1019.1
20190116162331 20 350 17.0 27.0 0.00 0.00 0.00 85 1019.1
20190116161836 21 318 19.0 31.0 0.00 0.00 0.00 84 1019.1
20190116161331 21 300 20.0 31.0 0.00 0.00 0.00 83 1018.8
20190116160831 21 315 21.0 27.0 0.00 0.00 0.00 82 1018.8
20190116160330 21 313 19.0 28.0 0.00 0.00 0.00 81 1018.8
20190116155831 21 302 18.0 28.0 0.00 0.00 0.00 82 1018.6
20190116155331 21 298 18.0 26.0 0.00 0.00 0.00 81 1018.6
20190116154830 21 315 17.0 26.0 0.00 0.00 0.00 82 1018.6
20190116154331 21 294 18.0 27.0 0.00 0.00 0.00 84 1018.4
20190116153829 20 301 21.0 30.0 0.00 0.00 0.00 84 1018.4
20190116153329 20 319 21.0 30.0 0.00 0.00 0.00 84 1018.4
20190116152828 21 300 21.0 30.0 0.00 0.00 0.00 84 1018.1
20190116152327 21 310 21.0 30.0 0.00 0.00 0.00 83 1018.1
20190116151828 21 313 19.0 28.0 0.00 0.00 0.00 83 1018.1
20190116151331 21 298 18.0 27.0 0.00 0.00 0.00 84 1017.8
20190116150827 21 305 19.0 27.0 0.00 0.00 0.00 83 1017.8
20190116150327 21 309 20.0 30.0 0.00 0.00 0.00 83 1017.8
20190116145826 21 305 20.0 30.0 0.00 0.00 0.00 83 1017.3
20190116145322 21 308 21.0 28.0 0.00 0.00 0.00 84 1017.3
20190116144823 21 296 20.0 27.0 0.00 0.00 0.00 83 1017.3
20190116144322 21 307 20.0 29.0 0.00 0.00 0.00 83 1016.9
20190116143823 20 294 21.0 29.0 0.00 0.00 0.00 83 1016.9
20190116143323 20 302 21.0 27.0 0.00 0.00 0.00 82 1016.9
20190116142821 20 298 23.0 35.0 0.00 0.00 0.00 82 1016.7
20190116142315 21 315 24.0 35.0 0.00 0.00 0.00 82 1016.7
20190116141814 21 306 25.0 35.0 0.00 0.00 0.00 83 1016.7
20190116141314 22 283 23.0 35.0 0.00 0.00 0.00 83 1016.3
20190116140814 22 323 20.0 30.0 0.00 0.00 0.00 84 1016.3
20190116140312 22 292 21.0 33.0 0.00 0.00 0.00 84 1016.3
20190116135812 23 305 21.0 33.0 0.00 0.00 0.00 84 1015.7
20190116135312 23 308 22.0 33.0 0.00 0.00 0.00 84 1015.7
20190116134813 23 304 23.0 33.0 0.00 0.00 0.00 84 1015.7
20190116134312 24 312 22.0 32.0 0.00 0.00 0.00 85 1015.2
20190116133813 24 312 19.0 30.0 0.00 0.00 0.00 85 1015.2
20190116133314 25 305 18.0 25.0 0.00 0.00 0.00 86 1015.2
20190116132812 25 307 21.0 33.0 0.00 0.00 0.00 86 1014.8
20190116132311 25 303 24.0 33.0 0.00 0.00 0.00 86 1014.8
20190116131810 25 300 24.0 32.0 0.00 0.00 0.00 87 1014.8
20190116131305 26 324 21.0 31.0 0.00 0.00 0.00 87 1014.3
20190116130805 26 311 19.0 28.0 0.00 0.00 0.00 88 1014.3
20190116130304 26 325 18.0 24.0 0.00 0.00 0.00 88 1013.9
20190116125803 26 304 18.0 27.0 0.00 0.00 0.00 89 1013.9
20190116125303 26 311 17.0 27.0 0.00 0.00 0.00 90 1013.9
20190116124803 26 290 18.0 28.0 0.00 0.00 0.00 90 1013.5
20190116124302 27 307 22.0 33.0 0.00 0.00 0.00 90 1013.5
20190116123758 27 286 23.0 33.0 0.00 0.00 0.00 89 1013.5
20190116123259 28 298 20.0 32.0 0.00 0.00 0.00 89 1013.0
20190116122756 28 319 13.0 32.0 0.00 0.00 0.00 89 1013.0
20190116122253 28 272 11.0 17.0 0.00 0.00 0.00 89 1013.0
20190116121750 28 294 11.0 17.0 0.00 0.00 0.00 90 1012.6
20190116121245 28 289 12.0 17.0 0.00 0.00 0.00 90 1012.6
20190116120745 28 279 12.0 16.0 0.00 0.00 0.00 90 1012.6
20190116120244 28 287 11.0 17.0 0.00 0.00 0.00 90 1012.4
20190116115744 27 292 12.0 22.0 0.00 0.00 0.00 90 1012.4
20190116115242 27 277 13.0 22.0 0.00 0.00 0.00 91 1012.4
20190116114742 27 288 15.0 24.0 0.00 0.00 0.00 91 1012.4
20190116114243 27 278 17.0 30.0 0.00 0.00 0.00 91 1012.4
20190116113742 27 284 16.0 30.0 0.00 0.00 0.00 90 1012.4
20190116113239 28 287 16.0 26.0 0.00 0.00 0.00 90 1011.4
20190116112738 29 303 16.0 23.0 0.00 0.00 0.00 90 1011.4
20190116112238 29 279 15.0 23.0 0.00 0.00 0.00 89 1011.4
20190116111736 29 272 15.0 23.0 0.00 0.00 0.00 90 1011.3
20190116111235 29 263 14.0 22.0 0.00 0.00 0.00 90 1011.3
20190116110736 29 264 15.0 22.0 0.00 0.00 0.00 89 1011.3
20190116110236 29 269 16.0 25.0 0.00 0.00 0.00 90 1011.2
20190116105736 29 269 15.0 25.0 0.00 0.00 0.00 90 1011.2
20190116105236 29 276 14.0 24.0 0.00 0.00 0.00 91 1011.2
20190116104735 29 264 13.0 21.0 0.00 0.00 0.00 91 1011.1
20190116104232 29 264 13.0 19.0 0.00 0.00 0.00 92 1011.1
20190116103734 29 277 14.0 21.0 0.00 0.00 0.00 91 1011.1
20190116103233 29 273 14.0 22.0 0.00 0.00 0.00 91 1010.8
20190116102733 29 263 14.0 22.0 0.00 0.00 0.00 91 1010.8
20190116102233 29 278 14.0 21.0 0.00 0.00 0.00 91 1010.8
20190116101732 29 243 15.0 21.0 0.00 0.00 0.00 91 1010.7
20190116101233 28 276 15.0 24.0 0.00 0.00 0.00 91 1010.7
20190116100732 28 248 14.0 24.0 0.00 0.00 0.00 91 1010.7
20190116100232 28 271 13.0 19.0 0.00 0.00 0.00 91 1010.6
20190116095732 28 269 15.0 22.0 0.00 0.00 0.00 91 1010.6
20190116095232 28 252 16.0 23.0 0.00 0.00 0.00 91 1010.6
20190116094733 28 265 16.0 23.0 0.00 0.00 0.00 91 1010.5
20190116094227 28 258 16.0 22.0 0.00 0.00 0.00 91 1010.5
20190116093727 28 260 16.0 23.0 0.00 0.00 0.00 91 1010.5
20190116093223 28 264 15.0 23.0 0.00 0.00 0.00 92 1010.4
20190116092723 28 263 14.0 23.0 0.00 0.00 0.00 92 1010.4
20190116092222 28 261 15.0 23.0 0.00 0.00 0.00 92 1010.4
20190116091723 28 247 16.0 23.0 0.00 0.00 0.00 92 1010.3
20190116091223 28 240 14.0 22.0 0.00 0.00 0.00 92 1010.3
20190116090722 28 248 13.0 20.0 0.00 0.00 0.00 92 1010.3
20190116090220 28 244 13.0 20.0 0.00 0.00 0.00 92 1010.3
20190116085720 27 243 13.0 20.0 0.00 0.00 0.00 92 1010.3
20190116085221 27 253 13.0 20.0 0.00 0.00 0.00 92 1010.3
20190116084720 27 252 13.0 20.0 0.00 0.00 0.00 92 1010.4
20190116084220 27 259 13.0 19.0 0.00 0.00 0.00 92 1010.4
20190116083716 27 234 13.0 19.0 0.00 0.00 0.00 92 1010.4
20190116083217 27 256 13.0 20.0 0.00 0.00 0.00 92 1010.7
20190116082716 27 254 14.0 20.0 0.00 0.00 0.00 92 1010.7
20190116082216 27 241 14.0 19.0 0.00 0.00 0.00 92 1010.7
20190116081717 27 254 13.0 19.0 0.00 0.00 0.00 92 1010.7
20190116081216 27 255 13.0 22.0 0.00 0.00 0.00 92 1010.7
20190116080715 27 250 13.0 22.0 0.00 0.00 0.00 91 1010.7
20190116080215 27 215 13.0 22.0 0.00 0.00 0.00 91 1010.7
20190116075714 27 248 14.0 22.0 0.00 0.00 0.00 91 1010.7
20190116075215 27 244 13.0 19.0 0.00 0.00 0.00 92 1010.7
20190116074715 27 246 13.0 19.0 0.00 0.00 0.00 92 1010.7
20190116074214 27 241 13.0 21.0 0.00 0.00 0.00 92 1010.7
20190116073715 27 230 13.0 21.0 0.00 0.00 0.00 92 1010.7
20190116073215 27 254 13.0 20.0 0.00 0.00 0.00 92 1010.6
20190116072714 27 259 15.0 23.0 0.00 0.00 0.00 92 1010.6
20190116072215 27 248 13.0 23.0 0.00 0.00 0.00 92 1010.6
20190116071714 26 244 13.0 23.0 0.00 0.00 0.00 92 1010.5
20190116071215 26 241 16.0 25.0 0.00 0.00 0.00 92 1010.5
20190116070714 26 254 15.0 25.0 0.00 0.00 0.00 91 1010.5